www.pogodaiklimat.ru

Погода и климат >> Архив погоды >> Бельгия >> Антверпен


ПОГОДА в Антверпене

АРХИВ ПОГОДЫ в Антверпене

Время (UTC), дата Ветер
(напр.,м/с)
 
Видим.   Явления Облачность Т
(С)
Тd
(С)
f
(%)
Тe
(С)
Тes
(С)
Комфортность P
(гПа)
Po
(гПа)
Тmin
(С)
Tmax
(С)
R
(мм)
R24
(мм)
S
(см)
22 14.09 штиль 0
{1}
25 км ясно +12.0 +8.5 79 +12 +12 1028.0 1026.4
23 14.09 штиль 0
{1}
25 км ясно +10.4 +8.2 86 +10 +10 1027.3 1025.7
00 15.09 штиль 0
{3}
27 км ясно +10.0 +7.6 85 +9 +9 1027.0 1025.3
01 15.09 штиль 0
{1}
21 км ясно +8.9 +7.2 89 +8 +8 1026.5 1024.9
02 15.09 Ю 1
{1}
16 км ясно +7.6 +6.7 94 +7 +7 1026.2 1024.6
03 15.09 ЮВ 1
{1}
17 км ясно +8.3 +7.1 92 +7 +7 1025.5 1023.9
04 15.09 ЮВ 1
{1}
14 км ясно +7.4 +6.8 96 +6 +6 1025.3 1023.7
05 15.09 Ю 1
{2}
15 км 4/0
[Ci fib]
+7.0 +6.0 93 +6 +6 1025.1 1023.4
06 15.09 штиль 0
{2}
15 км 4/0
[Ci fib]
+8.9 +7.5 91 +8 +8 1025.1 1023.5 +6.1
07 15.09 ЮЗ 2
{3}
15 км 4/0
[Ci fib]
+13.5 +9.9 79 +13 +14 1024.9 1023.3
08 15.09 ЮЗ 3
{4}
15 км 4/0
[Ci fib]
+16.4 +9.6 64 +16 +18 1024.8 1023.2
09 15.09 З 3
{5}
15 км 5/0
[Ci fib]
+18.4 +10.0 58 +19 +23 1025.2 1023.7
10 15.09 З 3
{5}
15 км 5/0
[Ci fib]
+20.0 +10.5 54 +22 +27 комфорт 1025.1 1023.5
11 15.09 З 5
{7}
15 км 5/0
[Ci fib]
+21.4 +9.3 46 +23 +27 комфорт 1024.8 1023.2
12 15.09 З 4
{7}
15 км 5/0
[Ci fib]
+22.7 +7.9 39 +24 +29 комфорт 1024.2 1022.6
13 15.09 З 3
{9}
15 км 4/0
[Ci fib]
+23.4 +8.3 38 +25 +31 комфорт 1023.6 1022.1
14 15.09 З 4
{6}
15 км 5/0
[Ci fib]
+24.3 +8.6 37 +25 +29 комфорт 1023.2 1021.7
15 15.09 СЗ 5
{10}
15 км 4/0
[Ci fib]
+23.3 +6.3 33 +24 +26 комфорт 1022.9 1021.4
16 15.09 СЗ 4
{7}
15 км 5/0
[Ci fib]
+22.8 +5.8 33 +23 +24 комфорт 1022.5 1020.9
17 15.09 СЗ 5
{7}
45 км 5/0
[Ci sp]
+21.3 +8.8 45 +23 +23 комфорт 1022.6 1021.1
18 15.09 С 4
{10}
45 км 5/0
[Ci sp]
+19.1 +13.2 69 +20 +20 1022.8 1021.3 +24.5
19 15.09 С 2
{7}
45 км 5/0
[Ac lent Ci sp]
+18.0 +14.0 77 +19 +19 1023.0 1021.5
20 15.09 СВ 1
{5}
45 км 5/0
[Ac trans Ci sp]
+17.1 +14.0 82 +18 +18 1023.2 1021.6
21 15.09 ЮВ 2
{7}
45 км 5/0
[Ac trans Ci sp]
+15.7 +14.1 90 +16 +16 1022.9 1021.3
22 15.09 штиль 0
{2}
15 км ясно +16.4 +13.9 85 +16 +16 1023.0 1021.4
23 15.09 Ю 1
{2}
17 км ясно +13.6 +12.9 96 +14 +14 1022.5 1021.0
00 16.09 Ю 1
{7}
12 км ясно +14.0 +12.7 92 +14 +14 1021.9 1020.4
01 16.09 С 1
{2}
17 км ясно +15.1 +13.5 90 +16 +16 1022.2 1020.7
02 16.09 Ю 1
{2}
9000 м ясно +13.1 +12.0 93 +13 +13 1021.9 1020.4
03 16.09 штиль 0
{2}
н/о ясно +13.6 +12.7 94 +13 +13 1021.4 1019.9
04 16.09 Ю 1
{2}
н/о ясно +14.0 +13.1 94 +14 +14 1020.6 1019.1
05 16.09 Ю 1
{2}
7000 м 6/0
[As trans]
+15.7 +13.2 85 +16 +16 1020.5 1018.9
06 16.09 З 1
{4}
7000 м 8/0
[As trans]
+15.5 +12.9 84 +16 +16 1020.3 1018.7 +12.4
07 16.09 Ю 1
{2}
11 км в посл. час дождь 9/5 1200 м
[Sc diur, vesp As trans]
+16.0 +12.4 79 +17 +17 1020.4 1018.8
08 16.09 ЮЗ 2
{4}
15 км 9/5 1200 м
[Sc diur, vesp As trans]
+16.7 +12.0 74 +17 +18 1020.4 1018.8
09 16.09 З 3
{5}
15 км {дождь} 9/4 1200 м
[Sc As trans]
+17.6 +12.6 72 +18 +19 1020.5 1018.9
10 16.09 З 3
{5}
15 км 9/5 420 м
[Sc As trans]
+18.5 +14.1 76 +19 +21 1020.6 1019.0
11 16.09 З 3
{5}
11 км 9/5 450 м
[Sc Ac trans Ci fib]
+19.6 +14.4 72 +22 +24 комфорт 1020.5 1019.0
12 16.09 СЗ 3
{6}
8000 м {дождь} 9/5 600 м
[Sc diur, vesp Ac trans Ci fib]
+20.3 +14.5 69 +23 +25 комфорт 1020.3 1018.8 0.0
13 16.09 С 4
{7}
7000 м в посл. час морось 9/6 720 м
[Sc Ac trans Ci fib]
+18.3 +16.1 87 +19 +20 1020.4 1018.9
14 16.09 С 4
{7}
7000 м 9/8 300 м
[Sc Ac trans]
+18.1 +14.5 79 +18 +19 1020.6 1019.0
15 16.09 С 5
{8}
8000 м 9/9 300 м
[Sc]
+17.4 +14.5 83 +17 +17 1021.0 1019.5
16 16.09 С 3
{7}
8000 м 9/9 330 м
[Sc]
+16.9 +13.9 82 +17 +17 1020.9 1019.3
17 16.09 С 2
{4}
10 км 10/9 330 м
[Sc]
+16.8 +13.4 80 +17 +17 1021.0 1019.4
18 16.09 С 2
{8}
35 км {дождь} 10/9 720 м
[Sc]
+16.5 +12.9 79 +17 +17 1021.1 1019.5 +20.6 0.0
19 16.09 С 2
{4}
35 км 10/9 1500 м
[Sc]
+16.1 +12.4 79 +16 +16 1021.4 1019.8
20 16.09 С 3
{4}
45 км 10/9 750 м
[Sc]
+15.9 +12.7 81 +15 +15 1021.8 1020.2
21 16.09 С 3
{5}
45 км 10/9 1020 м
[Sc]
+15.5 +12.0 80 +15 +15 1021.9 1020.3
22 16.09 С 2
{4}
40 км 10/10 870 м
[]
+15.4 +12.0 80 +15 +15 1022.2 1020.6
23 16.09 С 2
{4}
30 км 10/10 900 м
[]
+15.2 +11.4 78 +15 +15 1022.2 1020.7
00 17.09 С 1
{5}
27 км 10/10 1000 м
[]
+14.9 +11.3 79 +15 +15 1022.1 1020.5
01 17.09 СЗ 1
{2}
27 км 10/10 1000 м
[]
+15.4 +10.4 72 +16 +16 1021.8 1020.3
02 17.09 С 3
{5}
30 км 10/10 540 м
[]
+14.9 +10.6 75 +14 +14 1021.8 1020.3
03 17.09 С 1
{5}
27 км 5/5 1020 м
[]
+13.4 +10.0 80 +14 +14 1021.8 1020.3
04 17.09 СЗ 2
{3}
28 км 9/9 1080 м
[]
+13.4 +9.1 75 +13 +13 1021.9 1020.4
05 17.09 штиль 0
{2}
20 км 4/3 900 м
[Sc Ci fib]
+10.8 +8.4 85 +10 +10 1022.0 1020.4
06 17.09 штиль 0
{5}
20 км 4/1 900 м
[Sc Ci fib]
+8.8 +7.4 91 +8 +8 1022.3 1020.7 +8.7
07 17.09 ЮЗ 1
{2}
20 км 4/1 900 м
[Sc Ci fib]
+13.9 +9.9 77 +14 +15 1022.5 1020.9
08 17.09 З 3
{5}
20 км 6/5 900 м
[Sc Ci fib]
+15.2 +8.8 66 +15 +16 1023.0 1021.4
09 17.09 З 3
{5}
20 км 6/5 1200 м
[Sc Ci fib]
+16.1 +8.6 61 +16 +18 1023.1 1021.5
10 17.09 СЗ 4
{7}
30 км 6/5 1050 м
[Sc Ci fib]
+16.7 +8.1 57 +16 +18 1023.3 1021.7
11 17.09 З 5
{8}
30 км 6/4 960 м
[Cu Sc Ci fib]
+17.7 +7.5 51 +17 +20 1023.0 1021.5
12 17.09 СЗ 6
{9}
30 км 8/5 1050 м
[Cu Sc Ci fib]
+17.7 +8.6 55 +17 +19 1023.0 1021.4
13 17.09 СЗ 7
{10}
30 км 8/4 900 м
[Cu Sc Ci fib]
+18.9 +8.1 49 +19 +20 1022.9 1021.3
14 17.09 С 7
{10}
30 км 6/4 900 м
[Cu Sc Ci fib]
+18.7 +9.2 54 +19 +19 1023.3 1021.7
15 17.09 С 6
{10}
30 км 5/4 900 м
[Cu Sc Ci fib]
+17.6 +7.5 52 +17 +18 1023.5 1021.9
16 17.09 СЗ 6
{11}
40 км 5/3 1440 м
[Cu Sc Ci fib]
+17.0 +7.0 52 +16 +17 1023.6 1022.1
17 17.09 С 5
{10}
40 км 5/4 1320 м
[Cu Sc Ci fib]
+16.0 +6.6 54 +15 +15 1024.1 1022.5
18 17.09 С 5
{11}
30 км 1/0
[Ci sp]
+14.3 +5.2 54 +13 +13 1024.7 1023.1 +19.4
19 17.09 С 2
{7}
30 км 1/0
[Ci sp]
+12.7 +5.6 62 +12 +12 1025.3 1023.8
20 17.09 С 2
{4}
30 км 1/0
[Ci sp]
+12.3 +5.1 61 +12 +12 1025.7 1024.1
21 17.09 С 2
{7}
28 км 1/0
[Ci sp]
+12.0 +5.8 66 +11 +11 1026.0 1024.4
22 17.09 С 2
{4}
26 км ясно +11.2 +5.9 70 +10 +10 1026.3 1024.7
23 17.09 СВ 1
{3}
24 км ясно +9.7 +5.6 76 +9 +9 1026.4 1024.8
00 18.09 штиль 0
{7}
18 км 6/6 1500 м
[]
+6.9 +4.4 84 +6 +6 1026.7 1025.1
01 18.09 Ю 1
{1}
18 км ясно +7.7 +5.8 88 +7 +7 1026.6 1025.0
02 18.09 штиль 0
{1}
16 км 9/9 1110 м
[]
+6.9 +5.5 91 +6 +6 1026.6 1025.0
03 18.09 штиль 0
{1}
19 км 9/9 1380 м
[]
+7.6 +6.1 90 +7 +7 1026.8 1025.2
04 18.09 штиль 0
{1}
19 км 10/10 1320 м
[]
+8.7 +6.9 88 +8 +8 1026.9 1025.3
05 18.09 штиль 0
{1}
28 км 4/3 1380 м
[Sc Ci fib]
+8.0 +6.2 88 +7 +7 1027.1 1025.4
06 18.09 Ю 1
{1}
15 км 1/1 1380 м
[Sc Ci fib]
+7.0 +6.0 93 +6 +6 1027.5 1025.8 +6.0
07 18.09 штиль 0
{1}
20 км 1/1 1440 м
[Sc Ci fib]
+11.5 +8.6 82 +11 +12 1028.0 1026.4
08 18.09 В 1
{2}
20 км 1/1 1500 м
[Sc Ci fib]
+15.2 +7.7 61 +16 +19 1028.4 1026.8
09 18.09 СВ 2
{3}
20 км 1/1 1350 м
[Cu Sc Ci fib]
+15.8 +4.1 46 +16 +20 1028.6 1027.0
10 18.09 СВ 3
{6}
20 км 3/3 1440 м
[Cu hum Ci fib]
+16.3 +4.7 46 +16 +20 1028.5 1026.9
11 18.09 С 2
{7}
20 км 4/4 1440 м
[Cu hum Ci fib]
+17.0 +4.8 44 +17 +22 1028.6 1027.0
12 18.09 С 3
{7}
20 км 5/5 1470 м
[Cu Sc Ci fib]
+16.9 +5.1 46 +17 +20 1028.1 1026.6
13 18.09 С 2
{6}
20 км 5/5 1500 м
[Cu Sc Ci fib]
+16.9 +5.2 46 +17 +21 1027.8 1026.3
14 18.09 С 3
{7}
20 км 8/8 1320 м
[Cu Sc Ci fib]
+17.5 +5.5 45 +18 +19 1027.7 1026.2
15 18.09 С 3
{7}
20 км 6/6 1350 м
[Cu Sc Ci fib]
+17.0 +7.2 52 +17 +18 1027.8 1026.2
16 18.09 С 4
{7}
30 км 6/6 1440 м
[Cu Sc Ci fib]
+15.8 +6.1 52 +15 +15 1027.8 1026.2
17 18.09 С 3
{7}
30 км 5/5 1500 м
[Cu Sc Ci fib]
+15.6 +5.8 52 +15 +15 1027.9 1026.3
18 18.09 СВ 4
{7}
30 км 5/5 1200 м
[Cu Sc Ci fib]
+14.4 +6.7 60 +13 +13 1028.2 1026.6 +18.5
19 18.09 С 2
{5}
30 км 5/5 1200 м
[Sc diur, vesp Ci fib]
+13.1 +6.3 63 +13 +13 1028.8 1027.2
20 18.09 С 2
{4}
30 км 4/4 1500 м
[Sc Ci fib]
+12.4 +6.3 66 +12 +12 1029.1 1027.5
21 18.09 С 2
{5}
30 км 4/4 1500 м
[Sc Ci fib]
+11.5 +6.7 72 +10 +10 1029.4 1027.8
22 18.09 СВ 2
{3}
40 км ясно +11.1 +7.0 76 +10 +10 1029.7 1028.1
23 18.09 С 1
{3}
40 км ясно +10.6 +6.9 78 +10 +10 1030.1 1028.5
00 19.09 С 1
{5}
40 км ясно +9.9 +6.9 82 +9 +9 1030.2 1028.6
01 19.09 С 1
{2}
45 км 4/4 1500 м
[]
+9.8 +6.9 82 +9 +9 1030.3 1028.7
02 19.09 СЗ 1
{2}
27 км 10/10 1320 м
[]
+8.7 +6.6 87 +8 +8 1030.3 1028.7
03 19.09 СВ 1
{2}
35 км 10/10 1260 м
[]
+10.7 +7.8 82 +10 +10 1030.2 1028.6
04 19.09 штиль 0
{1}
28 км 10/10 1230 м
[]
+9.2 +7.1 87 +8 +8 1030.1 1028.5
05 19.09 штиль 0
{1}
30 км 8/8 1470 м
[Sc Ci fib]
+10.2 +7.5 83 +10 +10 1030.2 1028.6
06 19.09 ЮВ 1
{2}
30 км 6/6 1470 м
[Sc Ci fib]
+9.1 +7.0 87 +8 +8 1030.8 1029.2 +7.4
07 19.09 штиль 0
{1}
30 км 4/4 1470 м
[Sc Ci fib]
+12.4 +8.6 78 +12 +13 1031.1 1029.5
08 19.09 СВ 2
{3}
30 км 4/4 1500 м
[Sc Ci fib]
+14.0 +7.8 66 +14 +15 1031.6 1030.0
09 19.09 В 2
{4}
30 км 5/4 900 м
[Cu Sc Ci fib]
+14.9 +7.9 63 +15 +18 1031.8 1030.2
10 19.09 СВ 2
{4}
30 км 5/3 900 м
[Cu Sc Ci fib]
+15.3 +7.3 59 +15 +20 1031.9 1030.3
11 19.09 СВ 3
{5}
30 км 8/6 1050 м
[Cu Sc Ci fib]
+16.0 +6.7 54 +16 +18 1031.9 1030.3
12 19.09 СВ 2
{5}
30 км 6/5 1200 м
[Cu Sc Ci fib]
+17.5 +7.2 51 +18 +22 1031.4 1029.8
13 19.09 СВ 3
{6}
30 км 8/6 1320 м
[Cu Sc Ci fib]
+16.8 +7.1 53 +17 +19 1031.1 1029.6
14 19.09 СВ 4
{6}
30 км в посл. час дождь 6/5 1320 м
[Cu Sc Ci fib]
+17.0 +7.5 54 +17 +18 1031.0 1029.4
15 19.09 СВ 4
{7}
30 км 5/4 1350 м
[Cu hum Ci fib]
+17.2 +6.7 50 +17 +18 1030.6 1029.0
16 19.09 В 3
{7}
30 км 4/4 1350 м
[Cu hum Ci fib]
+17.2 +6.6 50 +17 +18 1030.3 1028.7
17 19.09 СВ 3
{6}
30 км 1/1 1350 м
[Sc Ci fib]
+16.4 +6.2 51 +16 +16 1030.3 1028.7
18 19.09 СВ 2
{7}
30 км 4/0
[Ci fib]
+14.9 +6.5 57 +15 +15 1030.5 1028.9 +18.0
19 19.09 СВ 2
{3}
30 км 4/0
[Ci fib]
+13.4 +7.1 66 +13 +13 1030.7 1029.1
20 19.09 СВ 2
{5}
30 км 4/0
[Ci fib]
+12.6 +6.9 68 +12 +12 1030.8 1029.2
21 19.09 СВ 1
{5}
30 км 3/0
[Ci fib]
+12.1 +7.3 72 +12 +12 1031.1 1029.5
22 19.09
{3}
н/о н/о
23 19.09 В 2
{3}
30 км ясно +9.8 +6.3 79
00 20.09 В 2
{5}
35 км ясно +10.0 +6.5 79 +9 +9 1030.7 1029.1
01 20.09 В 1
{2}
28 км ясно +9.0 +6.6 85 +8 +8 1030.6 1028.9
02 20.09 В 1
{1}
26 км ясно +8.9 +6.6 85 +8 +8 1030.3 1028.7
03 20.09 штиль 0
{2}
21 км ясно +8.5 +6.1 85 +8 +8 1030.0 1028.3
04 20.09 В 1
{1}
12 км ясно +8.0 +6.1 88 +7 +7 1029.7 1028.1
05 20.09 В 1
{2}
20 км 4/0
[Ci fib]
+6.4 +5.0 91 +5 +5 1029.4 1027.8
06 20.09 СВ 1
{2}
20 км 4/0
[Ci fib]
+6.3 +4.5 88 +5 +5 1029.6 1028.0 +5.6
07 20.09 В 1
{2}
20 км 4/0
[Ci fib]
+8.8 +6.6 86 +8 +9 1029.7 1028.1
08 20.09 В 2
{2}
20 км 6/0
[Ci fib]
+11.0 +6.8 75 +10 +12 1030.0 1028.4
09 20.09 В 3
{5}
20 км 6/0
[Ci fib]
+14.1 +5.7 57 +13 +17 1029.9 1028.3
10 20.09 В 3
{5}
20 км 6/0
[Ci fib]
+17.0 +5.3 46 +17 +22 1029.2 1027.6
11 20.09 В 4
{6}
20 км 6/0
[Ci fib]
+18.0 +3.6 38 +18 +23 1028.5 1027.0
12 20.09 В 4
{7}
20 км 5/0
[Ci fib]
+19.3 +3.3 35 +20 +25 1027.7 1026.2
14 20.09 В 5
{9}
20 км 5/0
[Ci fib]
+20.2 +2.0 30 +20 +23 1026.3 1024.8
15 20.09 В 5
{9}
20 км 5/0
[Ci fib]
+19.7 +2.1 31 +20 +22 1025.6 1024.0
16 20.09 В 5
{7}
20 км 5/0
[Ci fib]
+19.3 +2.0 32 +19 +20 1025.0 1023.5
17 20.09 В 4
{8}
20 км 6/0
[Ci]
+18.5 +3.0 36 +19 +19 1024.6 1023.0
18 20.09 В 3
{9}
20 км 6/0
[Ci fib]
+16.5 +4.0 43 +16 +16 1024.4 1022.9 +20.9
19 20.09 В 2
{4}
20 км 6/0
[Ci fib]
+13.1 +4.2 55 +13 +13 1024.2 1022.6
20 20.09 В 3
{5}
20 км 6/0
[Ci fib]
+14.4 +4.8 52 +14 +14 1023.6 1022.0
21 20.09 В 3
{5}
20 км 5/0
[Ci fib]
+12.9 +5.1 59 +12 +12 1023.2 1021.6
22 20.09 В 3
{4}
40 км ясно +11.2 +4.9 65 +10 +10 1022.8 1021.2
23 20.09 В 3
{4}
35 км ясно +10.5 +4.8 68 +9 +9 1022.4 1020.8
00 21.09 В 2
{5}
35 км ясно +10.5 +5.0 69 +9 +9 1022.0 1020.4
01 21.09 В 1
{3}
35 км ясно +8.6 +4.4 75 +8 +8 1021.5 1019.9
02 21.09 В 1
{2}
30 км ясно +8.7 +4.7 76 +8 +8 1021.1 1019.5
03 21.09 В 2
{3}
35 км ясно +8.2 +4.2 76 +6 +6 1020.9 1019.3
04 21.09 В 1
{3}
30 км ясно +6.5 +4.1 85 +5 +5 1020.3 1018.6
05 21.09 В 1
{2}
20 км 1/0
[Ci fib]
+6.6 +3.8 82 +6 +6 1019.8 1018.1
06 21.09 В 2
{4}
30 км ясно +6.9 +4.0 82 +5 +5 1019.3 1017.7 +5.5
07 21.09 В 3
{4}
30 км ясно +9.9 +5.5 74 +8 +9 1019.3 1017.7
08 21.09 В 4
{6}
30 км ясно +12.9 +5.2 59 +11 +13 1018.9 1017.3
09 21.09 В 4
{6}
40 км ясно +16.4 +4.7 46 +16 +19 1018.4 1016.9
10 21.09 ЮВ 6
{8}
40 км ясно +18.8 +3.5 36 +19 +21 1017.9 1016.4
11 21.09 В 5
{8}
40 км ясно +20.7 +3.8 33 +21 +25 комфорт 1017.1 1015.6
12 21.09 ЮВ 5
{8}
40 км ясно +22.1 +4.2 31 +22 +27 комфорт 1016.3 1014.7
13 21.09 ЮВ 6
{8}
40 км ясно +24.1 +5.7 31 +24 +27 комфорт 1015.4 1013.9
14 21.09 ЮВ 5
{8}
40 км ясно +25.4 +6.4 30 +25 +28 комфорт 1014.6 1013.1
15 21.09 ЮВ 5
{8}
40 км ясно +25.9 +6.9 30 +26 +28 жарко 1013.8 1012.3
16 21.09 В 5
{7}
40 км ясно +25.8 +7.5 31 +26 +27 жарко 1013.0 1011.5
17 21.09 В 5
{7}
40 км ясно +24.1 +7.0 33 +24 +24 комфорт 1012.6 1011.1
18 21.09 В 3
{8}
40 км ясно +21.0 +6.7 39 +22 +22 комфорт 1012.3 1010.8 +26.2
19 21.09 В 3
{5}
40 км ясно +18.2 +6.3 46 +18 +18 1012.4 1010.9
20 21.09 В 3
{4}
40 км ясно +17.8 +6.0 46 +18 +18 1012.4 1010.9

 

Местоположение метеостанции Антверпен (Бельгия): широта 51.20 долгота 4.47 высота над уровнем моря 14 м.

В архиве по умолчанию представлена погода в Антверпене за последнюю неделю. Архивные данные за месяц целиком и за предыдущие месяцы, начиная с января 2011 года, Вы можете получить, выбрав интересующий диапазон дат из раскрывающегося списка и нажав кнопку "Ввод!".


*Определитесь, кто Вы:
робот инопланетянин человек

Внимание! Время в таблицах - всемирное. Для получения местного времени необходимо прибавить поправку, которая равна 1 ч.

Смотрите также архив погоды в соседних городах и на ближайших метеорологических станциях:

Погода в Вунстдрехте (Нидерланды) (29 км)
Погода в Брюсселе (Бельгия) (34 км)
Погода в Толене (Нидерланды) (36 км)
Погода в Ретье (Бельгия) (39 км)
Погода в Вестдорпе (Нидерланды) (42 км)
Погода в Гансверте (Нидерланды) (43 км)
Погода в Уккеле (Бельгия) (45 км)
Погода в Генте (Бельгия) (45 км)
Погода в Шаффене (Бельгия) (47 км)
Погода в Мелле (Бельгия) (52 км)

Пояснения к столбцам:

Ветер - указаны скорость ветра в м/с - средняя за 10 мин, порывы в срок и между сроками (в фигурных скобках) и направление, откуда дует ветер: С - северный, СВ - северо-восточный, В - восточный, ЮВ - юго-восточный, Ю - южный, ЮЗ - юго-западный, З - западный, СЗ - северо-западный.
Видимость - горизонтальная дальность видимости в метрах или километрах. При видимости от 1 до 10 км при отсутствии осадков обычно наблюдается дымка, при ухудшении видимости до 1 км и менее - туман. В сухую погоду видимость может ухудшаться дымом, пылью или мглою.
Явления - указаны атмосферные явления, наблюдавшиеся в срок или в последний час перед сроком; фигурными скобками обозначены явления, наблюдавшиеся между сроками (за 1-3 часа до срока); квадратными скобками обозначены град или гололедные отложения с указанием их диаметра в мм.
Облачность - указаны через наклонную черту общая и нижняя облачность в баллах и высота нижней границы облаков в метрах; квадратными скобками обозначены формы облаков: Ci - перистые, Cs - перисто-слоистые, Cc - перисто-кучевые, Ac - высококучевые, As - высокослоистые, Sc - слоисто-кучевые, Ns - слоисто-дождевые, Cu - кучевые, Cb - кучево-дождевые. Подробнее классификацию облаков см. в Атласе облаков (PDF).
T - Температура воздуха - температура, измеренная на высоте 2 м над землей.
Td - Температура точки росы - температура, при понижении до которой содержащийся в воздухе водяной пар достигнет насыщения.
f - Относительная влажность воздуха - влажноcть воздуха, измеренная на высоте 2 м над землей.
Te - Эффективная температура - температура, которую ощущает одетый по сезону человек в тени. Характеристика душности погоды. При расчете учитывается влияние влажности воздуха и скорости ветра на теплоощущения человека.
Tes - Эффективная температура на солнце - температура, которую ощущает человек, с поправкой на солнечный нагрев. Характеристика знойности погоды. Зависит от высоты солнца над горизонтом, облачности и скорости ветра. Ночью, в пасмурную погоду, а также при ветре 12 м/с и более поправка равна нулю.
P - Атмосферное давление - приведенное к уровню моря атмосферное давление.
Po - Атмосферное давление - измеренное на уровне метеостанции атмосферное давление.
Tmin - Минимальная температура - минимум температуры воздуха на высоте 2 м над землей.
Tmax - Максимальная температура - максимум температуры воздуха на высоте 2 м над землей.
R - Количество осадков - Количество выпавших осадков за период времени, мм. При наведении курсора мыши на число - период времени, за который выпало указанное количество осадков.
R24 - Количество осадков - Количество выпавших осадков за 24 часа, мм.
S - Снежный покров - Высота снежного покрова, см. При наведении курсора мыши на число - состояние снежного покрова и степень покрытия местности в баллах.